N321FK -KBOS

Flight info

Callsign N321FK
Flight time N/A
Altitude VFR
Route
Aircraft SR22/L-VGD/C

Departure

Time N/A
Airport -

Arrival

Time 2026-05-06 00:55
Airport Boston Logan International Airport (KBOS)
Time Latitude Longitude Altitude Speed Heading
2026-05-06 00:52 42.44521 -70.97855 1165 ft 94 kts 187°
2026-05-06 00:52 42.43795 -70.97911 977 ft 109 kts 193°
2026-05-06 00:52 42.43048 -70.98136 867 ft 111 kts 201°
2026-05-06 00:52 42.42319 -70.98483 764 ft 109 kts 200°
2026-05-06 00:53 42.41629 -70.98773 668 ft 100 kts 199°
2026-05-06 00:53 42.40963 -70.99064 569 ft 81 kts 201°
2026-05-06 00:53 42.40496 -70.99264 525 ft 70 kts 199°
2026-05-06 00:53 42.40042 -70.99461 444 ft 66 kts 199°
2026-05-06 00:54 42.39576 -70.99673 388 ft 73 kts 199°
2026-05-06 00:54 42.39078 -70.99895 334 ft 81 kts 198°
2026-05-06 00:54 42.38530 -71.00132 241 ft 79 kts 199°
2026-05-06 00:54 42.38022 -71.00366 142 ft 77 kts 199°
2026-05-06 00:55 42.37515 -71.00610 16 ft 73 kts 199°
2026-05-06 00:55 42.37115 -71.00806 12 ft 50 kts 198°
2026-05-06 00:55 42.36818 -71.00933 12 ft 39 kts 199°
2026-05-06 00:55 42.36645 -71.01065 13 ft 17 kts 270°
2026-05-06 00:56 42.36663 -71.01150 13 ft 0 kts 328°
2026-05-06 00:56 42.36715 -71.01147 13 ft 21 kts 25°
2026-05-06 00:57 42.36881 -71.01269 13 ft 32 kts 316°
2026-05-06 00:57 42.37053 -71.01499 13 ft 35 kts 317°
2026-05-06 00:57 42.37235 -71.01752 13 ft 38 kts 317°
2026-05-06 00:57 42.37422 -71.01994 13 ft 33 kts 310°
2026-05-06 00:58 42.37411 -71.02074 13 ft 0 kts 124°